N1980K KTRM-KLAX

Flight info

Callsign N1980K
Flight time 0h 29m
Altitude 16000
Route MECCA1 PSP V388 LENHO SEAVU SNSTT2
Aircraft GLF6/M-SBDE2E3FGHIJ4J5M1RWXY/LB1D1

Departure

Time 2026-04-20 20:47
Airport Jacqueline Cochran Regional Airport (KTRM)

Arrival

Time 2026-04-20 21:16
Airport Los Angeles International Airport (KLAX)
Time Latitude Longitude Altitude Speed Heading
2026-04-20 20:34 33.63658 -116.15836 -59 ft 0 kts 270°
2026-04-20 20:44 33.63669 -116.15846 -59 ft 4 kts 344°
2026-04-20 20:44 33.63705 -116.15838 -58 ft 5 kts 28°
2026-04-20 20:45 33.63729 -116.15797 -58 ft 6 kts 74°
2026-04-20 20:45 33.63765 -116.15771 -58 ft 7 kts 358°
2026-04-20 20:45 33.63817 -116.15771 -58 ft 7 kts
2026-04-20 20:45 33.63881 -116.15768 -57 ft 11 kts 14°
2026-04-20 20:46 33.63899 -116.15674 -57 ft 14 kts 109°
2026-04-20 20:46 33.63817 -116.15639 -58 ft 13 kts 180°
2026-04-20 20:46 33.63713 -116.15639 -59 ft 25 kts 181°
2026-04-20 20:46 33.63263 -116.15638 -64 ft 105 kts 180°
2026-04-20 20:47 33.62290 -116.15648 118 ft 159 kts 179°
2026-04-20 20:47 33.61349 -116.15665 995 ft 107 kts 179°
2026-04-20 20:47 33.60354 -116.15678 1069 ft 177 kts 180°
2026-04-20 20:47 33.59212 -116.15692 2323 ft 175 kts 180°
2026-04-20 20:48 33.57831 -116.15682 2618 ft 216 kts 174°
2026-04-20 20:48 33.56479 -116.14902 2809 ft 219 kts 131°
2026-04-20 20:48 33.55609 -116.13435 3167 ft 215 kts 123°
2026-04-20 20:48 33.54711 -116.11782 3728 ft 254 kts 117°
2026-04-20 20:49 33.54423 -116.09689 4242 ft 261 kts 81°
2026-04-20 20:49 33.55066 -116.07684 4768 ft 261 kts 64°
2026-04-20 20:49 33.55915 -116.05782 5250 ft 260 kts 62°
2026-04-20 20:49 33.57058 -116.04138 5891 ft 263 kts 34°
2026-04-20 20:50 33.58788 -116.03399 6762 ft 272 kts
2026-04-20 20:50 33.60653 -116.03673 7616 ft 281 kts 341°
2026-04-20 20:50 33.62242 -116.05061 8493 ft 286 kts 306°
2026-04-20 20:50 33.63123 -116.07170 9369 ft 289 kts 291°
2026-04-20 20:51 33.63882 -116.09379 10213 ft 292 kts 290°
2026-04-20 20:51 33.64674 -116.11688 11073 ft 304 kts 290°
2026-04-20 20:51 33.65478 -116.14032 11842 ft 310 kts 290°
2026-04-20 20:51 33.66310 -116.16460 11914 ft 314 kts 290°
2026-04-20 20:52 33.67135 -116.18868 11925 ft 309 kts 290°
2026-04-20 20:52 33.67963 -116.21289 11930 ft 334 kts 290°
2026-04-20 20:52 33.68922 -116.23996 11906 ft 362 kts 295°
2026-04-20 20:52 33.70346 -116.26501 11931 ft 364 kts 309°
2026-04-20 20:53 33.72134 -116.28682 11920 ft 360 kts 316°
2026-04-20 20:53 33.74003 -116.30653 11924 ft 375 kts 319°
2026-04-20 20:53 33.76102 -116.32717 11914 ft 398 kts 320°
2026-04-20 20:53 33.78299 -116.34811 11930 ft 398 kts 321°
2026-04-20 20:54 33.80462 -116.36845 11929 ft 396 kts 321°
2026-04-20 20:54 33.82643 -116.38888 11903 ft 395 kts 321°
2026-04-20 20:54 33.84796 -116.40901 11929 ft 394 kts 321°
2026-04-20 20:54 33.86742 -116.43200 11949 ft 391 kts 303°
2026-04-20 20:55 33.87837 -116.46147 11932 ft 387 kts 285°
2026-04-20 20:55 33.88612 -116.49239 11948 ft 388 kts 285°
2026-04-20 20:55 33.89400 -116.52361 11927 ft 388 kts 285°
2026-04-20 20:55 33.90181 -116.55450 11934 ft 387 kts 285°
2026-04-20 20:56 33.90973 -116.58578 11963 ft 387 kts 285°
2026-04-20 20:56 33.91757 -116.61668 11965 ft 388 kts 285°
2026-04-20 20:56 33.92536 -116.64752 11969 ft 388 kts 285°
2026-04-20 20:56 33.93325 -116.67873 11968 ft 387 kts 284°
2026-04-20 20:57 33.94107 -116.70971 11991 ft 387 kts 285°
2026-04-20 20:57 33.94761 -116.74110 11986 ft 383 kts 274°
2026-04-20 20:57 33.94751 -116.77361 12019 ft 382 kts 265°
2026-04-20 20:57 33.94646 -116.80537 12014 ft 382 kts 265°
2026-04-20 20:58 33.94537 -116.83731 12022 ft 383 kts 265°
2026-04-20 20:58 33.94427 -116.86969 11996 ft 382 kts 265°
2026-04-20 20:58 33.94317 -116.90153 12007 ft 382 kts 265°
2026-04-20 20:58 33.94204 -116.93401 12001 ft 382 kts 265°
2026-04-20 20:59 33.94091 -116.96606 11996 ft 383 kts 265°
2026-04-20 20:59 33.93979 -116.99798 12054 ft 383 kts 265°
2026-04-20 20:59 33.93864 -117.03042 11965 ft 382 kts 265°
2026-04-20 20:59 33.93750 -117.06245 11951 ft 381 kts 265°
2026-04-20 21:00 33.93634 -117.09428 11945 ft 381 kts 265°
2026-04-20 21:00 33.93519 -117.12600 11943 ft 380 kts 265°
2026-04-20 21:00 33.93403 -117.15782 11953 ft 381 kts 265°
2026-04-20 21:00 33.93272 -117.18926 11943 ft 364 kts 265°
2026-04-20 21:01 33.93146 -117.21881 11944 ft 340 kts 265°
2026-04-20 21:01 33.93028 -117.24641 11939 ft 321 kts 265°
2026-04-20 21:01 33.92906 -117.27322 11945 ft 316 kts 263°
2026-04-20 21:01 33.92238 -117.29784 11941 ft 311 kts 236°
2026-04-20 21:02 33.91154 -117.32058 11952 ft 317 kts 250°
2026-04-20 21:02 33.91017 -117.34717 11958 ft 324 kts 275°
2026-04-20 21:02 33.91611 -117.37321 11955 ft 327 kts 289°
2026-04-20 21:02 33.92492 -117.39874 11955 ft 327 kts 290°
2026-04-20 21:03 33.93372 -117.42404 11809 ft 324 kts 290°
2026-04-20 21:03 33.94229 -117.44850 11607 ft 312 kts 290°
2026-04-20 21:03 33.95056 -117.47222 11404 ft 302 kts 290°
2026-04-20 21:03 33.95860 -117.49535 11204 ft 298 kts 290°
2026-04-20 21:04 33.96657 -117.51836 11012 ft 297 kts 290°
2026-04-20 21:04 33.97452 -117.54125 10820 ft 297 kts 290°
2026-04-20 21:04 33.98251 -117.56426 10625 ft 297 kts 290°
2026-04-20 21:04 33.99052 -117.58711 10431 ft 296 kts 290°
2026-04-20 21:05 33.99847 -117.61015 10235 ft 295 kts 290°
2026-04-20 21:05 34.00637 -117.63307 10067 ft 294 kts 290°
2026-04-20 21:05 34.01426 -117.65569 10052 ft 293 kts 290°
2026-04-20 21:05 34.02203 -117.67777 9984 ft 286 kts 290°
2026-04-20 21:06 34.02816 -117.70072 9662 ft 278 kts 270°
2026-04-20 21:06 34.02408 -117.72264 9365 ft 268 kts 238°
2026-04-20 21:06 34.01386 -117.74151 9034 ft 267 kts 238°
2026-04-20 21:06 34.00622 -117.76199 8686 ft 268 kts 248°
2026-04-20 21:07 34.00103 -117.78321 8342 ft 267 kts 254°
2026-04-20 21:07 33.99706 -117.80523 7990 ft 267 kts 257°
2026-04-20 21:07 33.99382 -117.82731 7642 ft 266 kts 258°
2026-04-20 21:07 33.99100 -117.84918 7294 ft 265 kts 260°
2026-04-20 21:08 33.98861 -117.87115 7063 ft 262 kts 261°
2026-04-20 21:08 33.98647 -117.89253 7049 ft 248 kts 262°
2026-04-20 21:08 33.98448 -117.91266 6907 ft 244 kts 261°
2026-04-20 21:08 33.98245 -117.93310 6653 ft 241 kts 262°
2026-04-20 21:09 33.98048 -117.95308 6403 ft 240 kts 262°
2026-04-20 21:09 33.97854 -117.97274 6156 ft 239 kts 262°
2026-04-20 21:09 33.97656 -117.99274 5881 ft 239 kts 262°
2026-04-20 21:09 33.97461 -118.01254 5608 ft 238 kts 262°
2026-04-20 21:10 33.97262 -118.03252 5329 ft 237 kts 262°
2026-04-20 21:10 33.97069 -118.05200 5058 ft 236 kts 263°
2026-04-20 21:10 33.96876 -118.07146 4877 ft 226 kts 263°
2026-04-20 21:10 33.96692 -118.08997 4597 ft 221 kts 262°
2026-04-20 21:11 33.96509 -118.10828 4314 ft 216 kts 262°
2026-04-20 21:11 33.96328 -118.12618 4011 ft 214 kts 262°
2026-04-20 21:11 33.96149 -118.14394 3707 ft 212 kts 262°
2026-04-20 21:11 33.95973 -118.16141 3544 ft 210 kts 262°
2026-04-20 21:12 33.95795 -118.17909 3248 ft 213 kts 263°
2026-04-20 21:12 33.95620 -118.19656 2973 ft 207 kts 263°
2026-04-20 21:12 33.95459 -118.21264 2744 ft 185 kts 263°
2026-04-20 21:12 33.95309 -118.22757 2455 ft 178 kts 263°
2026-04-20 21:13 33.95162 -118.24211 2172 ft 170 kts 263°
2026-04-20 21:13 33.95020 -118.25616 1903 ft 166 kts 263°
2026-04-20 21:13 33.94883 -118.26978 1861 ft 164 kts 263°
2026-04-20 21:13 33.94744 -118.28351 1731 ft 159 kts 263°
2026-04-20 21:14 33.94617 -118.29595 1519 ft 144 kts 263°
2026-04-20 21:14 33.94498 -118.30770 1345 ft 142 kts 263°
2026-04-20 21:14 33.94380 -118.31956 1164 ft 142 kts 263°
2026-04-20 21:14 33.94261 -118.33128 978 ft 138 kts 263°
2026-04-20 21:15 33.94145 -118.34270 797 ft 137 kts 263°
2026-04-20 21:15 33.94029 -118.35415 610 ft 137 kts 263°
2026-04-20 21:15 33.93912 -118.36551 461 ft 136 kts 263°
2026-04-20 21:15 33.93795 -118.37676 306 ft 136 kts 263°
2026-04-20 21:16 33.93679 -118.38798 154 ft 132 kts 263°
2026-04-20 21:16 33.93572 -118.39853 118 ft 117 kts 263°
2026-04-20 21:16 33.93500 -118.40569 129 ft 38 kts 261°
2026-04-20 21:16 33.93453 -118.40709 131 ft 9 kts 206°
2026-04-20 21:17 33.93417 -118.40717 130 ft 15 kts 185°
2026-04-20 21:17 33.93375 -118.40618 128 ft 15 kts 84°
2026-04-20 21:17 33.93387 -118.40492 127 ft 15 kts 83°
2026-04-20 21:17 33.93401 -118.40354 125 ft 16 kts 83°
2026-04-20 21:18 33.93416 -118.40215 124 ft 16 kts 83°
2026-04-20 21:18 33.93429 -118.40078 123 ft 16 kts 83°
2026-04-20 21:18 33.93444 -118.39938 120 ft 17 kts 82°
2026-04-20 21:18 33.93444 -118.39825 119 ft 2 kts 136°
2026-04-20 21:19 33.93433 -118.39819 119 ft 6 kts 164°
2026-04-20 21:19 33.93366 -118.39826 121 ft 9 kts 218°
2026-04-20 21:19 33.93343 -118.39896 122 ft 9 kts 262°
2026-04-20 21:20 33.93340 -118.39945 122 ft 0 kts 266°